Hourly Data Report for January 21, 2005

TORONTO CITY
ONTARIO

43°40'00.000" N
79°24'00.000" W
112.50 m
6158355
71508
XTO

Download Data

Hourly Data (January 2005)
Hourly Data Report for January 21, 2005
TIME
LST
Temp Definition
°C
Dew Point Definition
°C
Rel Hum Definition
%
Precip. Amount Definition
mm

Wind Dir Definition
10's deg

Wind Spd Definition
km/h
Visibility Definition
km
Stn Press Definition
kPa
Hmdx Definition


Wind Chill Definition


Weather Definition


00:00 -17.8 -22.9 64   LegendMM LegendMM   100.94     LegendNANA
01:00 -18.3 -23.5 64   LegendMM LegendMM   100.96     LegendNANA
02:00 -19.0 -24.1 64   LegendMM LegendMM   101.03     LegendNANA
03:00 -19.7 -24.9 63   LegendMM LegendMM   101.09     LegendNANA
04:00 -20.4 -25.5 64   LegendMM LegendMM   101.14     LegendNANA
05:00 -21.1 -25.9 65   LegendMM LegendMM   101.20     LegendNANA
06:00 -21.5 -26.4 65   LegendMM LegendMM   101.28     LegendNANA
07:00 -22.0 -26.7 66   LegendMM LegendMM   101.38     LegendNANA
08:00 -22.5 -27.2 65   LegendMM LegendMM   101.45     LegendNANA
09:00 -22.7 -28.1 61   LegendMM LegendMM   101.51     LegendNANA
10:00 -21.5 -28.1 55   LegendMM LegendMM   101.54     LegendNANA
11:00 -19.6 -28.0 47   LegendMM LegendMM   101.54     LegendNANA
12:00 -18.5 -26.8 48   LegendMM LegendMM   101.52     LegendNANA
13:00 -16.5 -25.9 44   LegendMM LegendMM   101.48     LegendNANA
14:00 -15.8 -26.0 41   LegendMM LegendMM   101.44     LegendNANA
15:00 -16.2 -25.4 45   LegendMM LegendMM   101.41     LegendNANA
16:00 -15.9 -25.0 45   LegendMM LegendMM   101.41     LegendNANA
17:00 -16.0 -23.0 55   LegendMM LegendMM   101.41     LegendNANA
18:00 -16.4 -24.4 50   LegendMM LegendMM   101.43     LegendNANA
19:00 -16.8 -24.3 52   LegendMM LegendMM   101.45     LegendNANA
20:00 -17.2 -24.4 54   LegendMM LegendMM   101.42     LegendNANA
21:00 -17.6 -24.2 56   LegendMM LegendMM   101.32     LegendNANA
22:00 -18.2 -24.1 60   LegendMM LegendMM   101.25     LegendNANA
23:00 -17.8 -23.5 61   LegendMM LegendMM   101.15     LegendNANA

Notes on Data Quality.

Legend

  • E = Estimated
  • M = Missing
  • NA = Not Available*
  • [empty] = Indicates an unobserved value
Date modified: